Zurück zum Katalog

STARLINK-38097

AktivKommunikationSSO
NORAD 100163·PAYLOAD·🇺🇸 United States

Gestartet Jul 25, 2026 von Vandenberg Space Force Base

Loading…

Nächste Überflüge (nächste 24 Stunden)

TLE

AktuellSource: Space-Track

Epoche: Sep 14, 2026, 15:30 UTC

1 A0163U 26171R   26257.64618031  .00012050  00000-0  33516-3 0  9997
2 A0163  97.2839 290.2431 0000962  84.9588 275.1767 15.36984759  8000

Verfolge STARLINK-38097 in Echtzeit mit AllMySat

Download on the App Store